Ardabil, Iran

4:42 AM +0330 on October 17, 2019 (GMT +0330)
Ardabil

Weather History for OITL - August, 2019

Change the Weather History Date:

Wednesday, August 21, 2019

  Actual Average (WUND) Record (WUND)
Temperature  
Mean Temperature 60 °F -  
Max Temperature 80 °F - - (-1)
Min Temperature 41 °F - - (-1)
Degree Days  
Heating Degree Days 4    
Growing Degree Days 10 (Base 50)    
Moisture  
Dew Point 37 °F    
Average Humidity 36    
Maximum Humidity 62    
Minimum Humidity 23    
Precipitation  
Precipitation 0.00 in - - ()
Sea Level Pressure  
Sea Level Pressure 30.14 in    
Wind  
Wind Speed 9 mph ()    
Max Wind Speed 26 mph    
Max Gust Speed -    
Visibility 6.2 miles    
Events      
Averages and records for this station are not official NWS values.
T = Trace of Precipitation, MM = Missing Value Source: Averaged Metar Reports

Daily Weather History Graph

Daily Weather History Graph

Search for Another Location

Airport or City:

Astronomy

Aug. 21, 2019 Rise Set
Actual Time 6:35 AM +0430 8:02 PM +0430
Civil Twilight 6:07 AM +0430 8:30 PM +0430
Nautical Twilight 5:34 AM +0430 9:03 PM +0430
Astronomical Twilight 4:59 AM +0430 9:38 PM +0430
Moon 11:13 PM +0430 (8/21) 11:45 AM +0430 (8/21)
Length of Visible Light 14h 22m
Length of Day
13h 27m
Waning Gibbous, 72% of the Moon is Illuminated
Aug 21
Waning Gibbous
Aug 23
Last Quarter
Aug 30
New
Sep 6
First Quarter
Sep 14
Full

Hourly Weather History & Observations

Time (+0430) Temp. Windchill Dew Point Humidity Pressure Visibility Wind Dir Wind Speed Gust Speed Precip Events Conditions
12:21 AM 55.4 °F - 37.4 °F 51% 30.18 in - ESE 4.6 mph - N/A   Clear
1:21 AM 51.8 °F - 35.6 °F 54% 30.18 in - ESE 4.6 mph - N/A   Clear
2:21 AM 48.2 °F - 32.0 °F 54% 30.18 in - ESE 4.6 mph - N/A   Clear
3:20 AM 46.4 °F 44.3 °F 33.8 °F 62% 30.18 in - SE 4.6 mph - N/A   Clear
4:20 AM 46.4 °F 44.3 °F 30.2 °F 53% 30.18 in - SE 4.6 mph - N/A   Clear
5:20 AM 44.6 °F 42.2 °F 30.2 °F 57% 30.18 in - ESE 4.6 mph - N/A   Clear
6:20 AM 41.0 °F 38.0 °F 28.4 °F 61% 30.18 in - ESE 4.6 mph - N/A   Clear
6:30 AM 41.0 °F 38.0 °F 28.4 °F 61% 30.18 in - ESE 4.6 mph - N/A   Clear
7:21 AM 44.6 °F 42.2 °F 32.0 °F 61% 30.18 in 6.2 mi SE 4.6 mph - N/A   Partly Cloudy
7:30 AM 44.6 °F 42.2 °F 32.0 °F 61% 30.18 in 6.2 mi SE 4.6 mph - N/A   Partly Cloudy
8:21 AM 55.4 °F - 33.8 °F 44% 30.21 in 6.2 mi Calm Calm - N/A   Partly Cloudy
8:30 AM 55.4 °F - 33.8 °F 44% 30.21 in 6.2 mi Calm Calm - N/A   Partly Cloudy
9:30 AM 64.4 °F - 35.6 °F 34% 30.21 in 6.2 mi Calm Calm - N/A   Partly Cloudy
10:20 AM 71.6 °F - 37.4 °F 29% 30.18 in 6.2 mi East 4.6 mph - N/A   Partly Cloudy
11:21 AM 77.0 °F - 37.4 °F 24% 30.18 in 6.2 mi East 9.2 mph - N/A   Partly Cloudy
12:00 PM 78.8 °F - 39.2 °F 24% 30.15 in - ENE 11.5 mph - N/A   Clear
12:21 PM 80.6 °F - 39.2 °F 23% 30.15 in - ENE 11.5 mph - N/A   Clear
12:30 PM 80.6 °F - 39.2 °F 23% 30.15 in - ENE 11.5 mph - N/A   Clear
1:00 PM 80.6 °F - 41.0 °F 24% 30.15 in - ENE 16.1 mph - N/A   Clear
1:24 PM 80.6 °F - 42.8 °F 26% 30.15 in 6.2 mi ENE 18.4 mph - N/A   Partly Cloudy
1:30 PM 80.6 °F - 42.8 °F 26% 30.15 in 6.2 mi ENE 18.4 mph - N/A   Partly Cloudy
2:00 PM 80.6 °F - 41.0 °F 24% 30.12 in 6.2 mi ENE 21.9 mph - N/A   Partly Cloudy
2:20 PM 80.6 °F - 42.8 °F 26% 30.12 in 6.2 mi ENE 21.9 mph - N/A   Partly Cloudy
2:30 PM 80.6 °F - 42.8 °F 26% 30.12 in 6.2 mi ENE 21.9 mph - N/A   Partly Cloudy
3:21 PM 80.6 °F - 41.0 °F 24% 30.09 in 6.2 mi ENE 21.9 mph - N/A   Partly Cloudy
4:00 PM 80.6 °F - 42.8 °F 26% 30.09 in 6.2 mi ENE 24.2 mph - N/A   Partly Cloudy
4:20 PM 80.6 °F - 41.0 °F 24% 30.09 in 6.2 mi ENE 26.5 mph - N/A   Partly Cloudy
4:30 PM 80.6 °F - 41.0 °F 24% 30.09 in 6.2 mi ENE 26.5 mph - N/A   Partly Cloudy
5:23 PM 77.0 °F - 41.0 °F 28% 30.09 in 6.2 mi ENE 21.9 mph - N/A   Partly Cloudy
5:30 PM 77.0 °F - 41.0 °F 28% 30.09 in 6.2 mi ENE 21.9 mph - N/A   Partly Cloudy
6:00 PM 77.0 °F - 39.2 °F 26% 30.09 in 6.2 mi ENE 21.9 mph - N/A   Partly Cloudy
6:20 PM 77.0 °F - 39.2 °F 26% 30.06 in 6.2 mi ENE 24.2 mph - N/A   Partly Cloudy
7:00 PM 73.4 °F - 39.2 °F 29% 30.06 in 6.2 mi ENE 24.2 mph - N/A   Partly Cloudy
7:21 PM 73.4 °F - 37.4 °F 27% 30.06 in 6.2 mi ENE 19.6 mph - N/A   Partly Cloudy
7:30 PM 73.4 °F - 37.4 °F 27% 30.06 in 6.2 mi ENE 19.6 mph - N/A   Partly Cloudy
8:21 PM 69.8 °F - 35.6 °F 28% 30.09 in - ENE 16.1 mph - N/A   Clear
9:20 PM 68.0 °F - 37.4 °F 33% 30.09 in - ENE 11.5 mph - N/A   Clear
10:21 PM 64.4 °F - 41.0 °F 42% 30.09 in - SE 6.9 mph - N/A   Clear
11:21 PM 62.6 °F - 39.2 °F 42% 30.09 in - NNE 6.9 mph - N/A   Clear